WAT850 LSGG-LKPR

Flight info

Callsign WAT850
Flight time 1h 10m
Altitude 38000
Route SOSAL N871 KORED DCT BERSU DCT DITON/N0480F390 DCT LOKTA DCT TEDGO/N0479F380 DCT OKIBA/N0482F390 DCT COSJE DCT TONSU Z35 ODOMO DCT LOMKI
Aircraft B772/H-SDE2E3FGHIJ5LORVWXY/LB1D1

Departure

Time 2026-05-07 20:08
Airport Geneva International Airport (LSGG)

Arrival

Time 2026-05-07 21:19
Airport Václav Havel Airport Prague (LKPR)
Time Latitude Longitude Altitude Speed Heading
2026-05-07 19:22 46.23179 6.10436 1393 ft 0 kts 181°
2026-05-07 20:05 46.23150 6.10426 1393 ft 5 kts 218°
2026-05-07 20:05 46.23155 6.10371 1392 ft 8 kts 301°
2026-05-07 20:05 46.23148 6.10274 1393 ft 10 kts 233°
2026-05-07 20:05 46.23085 6.10171 1395 ft 17 kts 226°
2026-05-07 20:06 46.22989 6.10030 1397 ft 20 kts 225°
2026-05-07 20:06 46.22887 6.09881 1399 ft 21 kts 225°
2026-05-07 20:06 46.22785 6.09731 1402 ft 20 kts 226°
2026-05-07 20:06 46.22669 6.09558 1403 ft 24 kts 226°
2026-05-07 20:07 46.22574 6.09408 1407 ft 18 kts 237°
2026-05-07 20:07 46.22549 6.09231 1411 ft 16 kts 285°
2026-05-07 20:07 46.22618 6.09169 1413 ft 12 kts 13°
2026-05-07 20:07 46.22654 6.09202 1412 ft 1 kts 44°
2026-05-07 20:08 46.22686 6.09248 1412 ft 19 kts 45°
2026-05-07 20:08 46.23007 6.09718 1403 ft 109 kts 45°
2026-05-07 20:08 46.23708 6.10755 1492 ft 169 kts 45°
2026-05-07 20:08 46.24527 6.11968 2244 ft 176 kts 45°
2026-05-07 20:09 46.25399 6.13238 3072 ft 179 kts 45°
2026-05-07 20:09 46.26291 6.14509 3661 ft 188 kts 44°
2026-05-07 20:09 46.27252 6.15905 4093 ft 204 kts 47°
2026-05-07 20:10 46.29337 6.19047 5205 ft 235 kts 46°
2026-05-07 20:10 46.30517 6.20782 5797 ft 252 kts 46°
2026-05-07 20:10 46.31792 6.22657 6428 ft 267 kts 46°
2026-05-07 20:10 46.33094 6.24572 7230 ft 275 kts 46°
2026-05-07 20:11 46.34453 6.26573 8053 ft 282 kts 46°
2026-05-07 20:11 46.35825 6.28599 8861 ft 288 kts 47°
2026-05-07 20:11 46.36929 6.31034 9641 ft 294 kts 68°
2026-05-07 20:11 46.37589 6.33836 10424 ft 299 kts 74°
2026-05-07 20:12 46.38176 6.36767 10939 ft 314 kts 75°
2026-05-07 20:12 46.38791 6.39878 11431 ft 330 kts 74°
2026-05-07 20:12 46.39444 6.43148 11937 ft 346 kts 74°
2026-05-07 20:12 46.40127 6.46562 12428 ft 362 kts 74°
2026-05-07 20:13 46.40844 6.50145 12915 ft 378 kts 74°
2026-05-07 20:13 46.41585 6.53852 13387 ft 391 kts 73°
2026-05-07 20:13 46.42348 6.57679 14117 ft 398 kts 73°
2026-05-07 20:13 46.43120 6.61558 14875 ft 403 kts 73°
2026-05-07 20:14 46.43945 6.65410 15641 ft 408 kts 69°
2026-05-07 20:14 46.45206 6.69127 16387 ft 412 kts 58°
2026-05-07 20:14 46.46893 6.72509 17094 ft 417 kts 51°
2026-05-07 20:14 46.48719 6.75778 17837 ft 422 kts 50°
2026-05-07 20:15 46.50576 6.79089 18581 ft 427 kts 50°
2026-05-07 20:15 46.52441 6.82424 19251 ft 432 kts 50°
2026-05-07 20:15 46.54327 6.85808 19982 ft 436 kts 50°
2026-05-07 20:15 46.56229 6.89226 20686 ft 440 kts 50°
2026-05-07 20:16 46.58172 6.92711 21365 ft 445 kts 50°
2026-05-07 20:16 46.60124 6.96213 22023 ft 450 kts 50°
2026-05-07 20:16 46.62104 6.99772 22679 ft 454 kts 50°
2026-05-07 20:16 46.64072 7.03317 23301 ft 459 kts 50°
2026-05-07 20:17 46.66096 7.06966 23910 ft 464 kts 50°
2026-05-07 20:17 46.68112 7.10607 24482 ft 469 kts 50°
2026-05-07 20:17 46.70155 7.14302 25078 ft 473 kts 50°
2026-05-07 20:17 46.72244 7.18086 25632 ft 478 kts 50°
2026-05-07 20:18 46.74314 7.21840 26156 ft 483 kts 50°
2026-05-07 20:18 46.76422 7.25669 26713 ft 486 kts 49°
2026-05-07 20:18 46.78557 7.29554 27222 ft 491 kts 49°
2026-05-07 20:18 46.80721 7.33497 27742 ft 495 kts 49°
2026-05-07 20:19 46.82906 7.37485 28222 ft 500 kts 49°
2026-05-07 20:19 46.85081 7.41460 28699 ft 505 kts 49°
2026-05-07 20:19 46.87268 7.45467 29193 ft 509 kts 49°
2026-05-07 20:19 46.89459 7.49492 29808 ft 510 kts 49°
2026-05-07 20:20 46.91667 7.53554 30517 ft 508 kts 49°
2026-05-07 20:20 46.93844 7.57564 31185 ft 506 kts 49°
2026-05-07 20:20 46.96017 7.61573 31804 ft 505 kts 49°
2026-05-07 20:20 46.98195 7.65596 32383 ft 505 kts 50°
2026-05-07 20:21 47.00370 7.69618 32915 ft 506 kts 50°
2026-05-07 20:21 47.02552 7.73661 33425 ft 506 kts 50°
2026-05-07 20:21 47.04735 7.77711 33958 ft 506 kts 50°
2026-05-07 20:21 47.06911 7.81755 34530 ft 505 kts 50°
2026-05-07 20:22 47.09056 7.85745 34927 ft 505 kts 50°
2026-05-07 20:22 47.11220 7.89778 35029 ft 506 kts 50°
2026-05-07 20:22 47.13377 7.93877 35043 ft 504 kts 53°
2026-05-07 20:23 47.17153 8.02518 35095 ft 510 kts 56°
2026-05-07 20:23 47.19044 8.06958 35502 ft 509 kts 56°
2026-05-07 20:23 47.20890 8.11299 35990 ft 504 kts 56°
2026-05-07 20:23 47.22733 8.15637 36420 ft 501 kts 56°
2026-05-07 20:24 47.24582 8.19996 36792 ft 501 kts 56°
2026-05-07 20:24 47.26423 8.24342 37081 ft 503 kts 56°
2026-05-07 20:24 47.28302 8.28661 37364 ft 503 kts 52°
2026-05-07 20:24 47.30533 8.32611 37703 ft 500 kts 43°
2026-05-07 20:25 47.33121 8.36001 37999 ft 496 kts 34°
2026-05-07 20:25 47.38848 8.41697 38060 ft 495 kts 30°
2026-05-07 20:26 47.44556 8.47206 38056 ft 493 kts 30°
2026-05-07 20:26 47.50314 8.52784 38071 ft 494 kts 30°
2026-05-07 20:27 47.56009 8.58321 38066 ft 493 kts 30°
2026-05-07 20:27 47.61765 8.63936 38066 ft 494 kts 30°
2026-05-07 20:28 47.67444 8.69491 38063 ft 493 kts 31°
2026-05-07 20:28 47.73151 8.75088 38069 ft 493 kts 31°
2026-05-07 20:29 47.78891 8.80735 38072 ft 493 kts 31°
2026-05-07 20:29 47.84583 8.86349 38070 ft 492 kts 31°
2026-05-07 20:30 47.90279 8.91982 38074 ft 493 kts 31°
2026-05-07 20:30 47.95996 8.97651 38069 ft 492 kts 31°
2026-05-07 20:31 48.01675 9.03298 38069 ft 492 kts 31°
2026-05-07 20:31 48.07332 9.08938 38069 ft 493 kts 31°
2026-05-07 20:32 48.13039 9.14604 38061 ft 492 kts 28°
2026-05-07 20:32 48.19284 9.18483 38061 ft 483 kts
2026-05-07 20:33 48.25875 9.19887 38071 ft 479 kts
2026-05-07 20:33 48.32476 9.20971 38067 ft 479 kts
2026-05-07 20:34 48.39117 9.22077 38069 ft 480 kts
2026-05-07 20:34 48.45721 9.23187 38069 ft 480 kts
2026-05-07 20:35 48.52370 9.24312 38075 ft 479 kts
2026-05-07 20:35 48.58980 9.25436 38072 ft 478 kts
2026-05-07 20:36 48.65571 9.26388 38075 ft 477 kts
2026-05-07 20:36 48.72191 9.26966 38086 ft 476 kts
2026-05-07 20:37 48.78789 9.27560 38080 ft 476 kts
2026-05-07 20:37 48.85441 9.28176 38070 ft 477 kts
2026-05-07 20:38 48.92016 9.28794 38073 ft 478 kts
2026-05-07 20:38 48.98663 9.29424 38074 ft 478 kts
2026-05-07 20:39 49.05257 9.30054 38063 ft 478 kts
2026-05-07 20:39 49.11875 9.30688 38074 ft 477 kts
2026-05-07 20:40 49.18458 9.31867 38073 ft 480 kts 12°
2026-05-07 20:40 49.24623 9.35869 38072 ft 486 kts 30°
2026-05-07 20:41 49.29989 9.42148 38069 ft 490 kts 37°
2026-05-07 20:41 49.35288 9.48758 38063 ft 490 kts 37°
2026-05-07 20:42 49.40556 9.55343 38075 ft 490 kts 37°
2026-05-07 20:42 49.45804 9.61919 38075 ft 490 kts 37°
2026-05-07 20:43 49.51073 9.68540 38075 ft 490 kts 38°
2026-05-07 20:43 49.56354 9.75193 38076 ft 489 kts 38°
2026-05-07 20:44 49.61592 9.81810 38076 ft 489 kts 38°
2026-05-07 20:44 49.66823 9.88445 38063 ft 488 kts 39°
2026-05-07 20:45 49.71254 9.96331 38065 ft 493 kts 57°
2026-05-07 20:45 49.73998 10.05979 38072 ft 493 kts 71°
2026-05-07 20:46 49.76069 10.16087 38078 ft 494 kts 72°
2026-05-07 20:46 49.78108 10.26189 38074 ft 495 kts 72°
2026-05-07 20:47 49.80133 10.36293 38077 ft 494 kts 72°
2026-05-07 20:47 49.82157 10.46450 38070 ft 494 kts 72°
2026-05-07 20:48 49.84159 10.56561 38073 ft 493 kts 72°
2026-05-07 20:48 49.86120 10.66517 38077 ft 493 kts 73°
2026-05-07 20:49 49.88095 10.76595 38073 ft 493 kts 73°
2026-05-07 20:49 49.90074 10.86754 38073 ft 493 kts 73°
2026-05-07 20:50 49.92029 10.96837 38071 ft 491 kts 73°
2026-05-07 20:50 49.93977 11.06940 38072 ft 492 kts 73°
2026-05-07 20:51 49.95922 11.17106 38067 ft 492 kts 75°
2026-05-07 20:51 49.96732 11.27610 38064 ft 492 kts 91°
2026-05-07 20:52 49.96459 11.38209 38067 ft 492 kts 93°
2026-05-07 20:52 49.96136 11.48730 38074 ft 492 kts 93°
2026-05-07 20:53 49.95794 11.59328 38070 ft 491 kts 93°
2026-05-07 20:53 49.95438 11.69887 38057 ft 492 kts 94°
2026-05-07 20:54 49.95069 11.80482 38045 ft 491 kts 94°
2026-05-07 20:54 49.94693 11.90966 38045 ft 491 kts 94°
2026-05-07 20:55 49.94409 12.01581 38048 ft 490 kts 92°
2026-05-07 20:55 49.94205 12.12130 38057 ft 490 kts 92°
2026-05-07 20:56 49.93985 12.22661 37990 ft 487 kts 93°
2026-05-07 20:56 49.93870 12.27884 37387 ft 488 kts 92°
2026-05-07 20:56 49.93751 12.33161 36394 ft 497 kts 92°
2026-05-07 20:56 49.93618 12.38536 35369 ft 506 kts 92°
2026-05-07 20:57 49.93467 12.43964 34764 ft 502 kts 92°
2026-05-07 20:57 49.93314 12.49322 34403 ft 494 kts 92°
2026-05-07 20:57 49.93162 12.54576 34043 ft 486 kts 92°
2026-05-07 20:57 49.93011 12.59736 33617 ft 483 kts 92°
2026-05-07 20:58 49.92857 12.64895 33151 ft 480 kts 92°
2026-05-07 20:58 49.92702 12.70037 32666 ft 478 kts 92°
2026-05-07 20:58 49.92545 12.75178 32136 ft 477 kts 92°
2026-05-07 20:58 49.92386 12.80284 31567 ft 476 kts 92°
2026-05-07 20:59 49.92225 12.85389 30883 ft 475 kts 91°
2026-05-07 20:59 49.92064 12.90427 30074 ft 472 kts 91°
2026-05-07 20:59 49.91901 12.95474 29289 ft 464 kts 91°
2026-05-07 20:59 49.91738 13.00431 28515 ft 456 kts 91°
2026-05-07 21:00 49.91578 13.05230 27759 ft 448 kts 91°
2026-05-07 21:00 49.91416 13.10036 26956 ft 439 kts 91°
2026-05-07 21:00 49.91259 13.14676 26189 ft 428 kts 91°
2026-05-07 21:00 49.91103 13.19178 25433 ft 418 kts 91°
2026-05-07 21:01 49.90948 13.23649 24664 ft 408 kts 91°
2026-05-07 21:01 49.90796 13.27970 23914 ft 400 kts 91°
2026-05-07 21:01 49.90646 13.32188 23187 ft 392 kts 91°
2026-05-07 21:01 49.90495 13.36386 22455 ft 385 kts 91°
2026-05-07 21:02 49.90373 13.40445 21738 ft 379 kts 87°
2026-05-07 21:02 49.90579 13.44458 21012 ft 371 kts 77°
2026-05-07 21:02 49.91188 13.48278 20330 ft 362 kts 68°
2026-05-07 21:02 49.92163 13.51835 19695 ft 353 kts 59°
2026-05-07 21:03 49.93425 13.54983 19097 ft 344 kts 50°
2026-05-07 21:03 49.94869 13.57927 18497 ft 339 kts 50°
2026-05-07 21:03 49.96290 13.60790 17904 ft 337 kts 50°
2026-05-07 21:03 49.97710 13.63657 17310 ft 336 kts 50°
2026-05-07 21:04 49.99135 13.66540 16713 ft 335 kts 51°
2026-05-07 21:04 50.00542 13.69395 16318 ft 331 kts 51°
2026-05-07 21:04 50.01923 13.72199 15932 ft 326 kts 51°
2026-05-07 21:04 50.03296 13.74991 15540 ft 321 kts 51°
2026-05-07 21:05 50.04629 13.77706 15169 ft 317 kts 51°
2026-05-07 21:05 50.05965 13.80437 14780 ft 313 kts 53°
2026-05-07 21:05 50.07079 13.83275 14409 ft 311 kts 62°
2026-05-07 21:05 50.07889 13.86404 14019 ft 308 kts 72°
2026-05-07 21:06 50.08359 13.89592 13638 ft 305 kts 79°
2026-05-07 21:06 50.08731 13.92827 13249 ft 302 kts 79°
2026-05-07 21:06 50.09096 13.96038 12879 ft 299 kts 79°
2026-05-07 21:06 50.09454 13.99197 12501 ft 297 kts 79°
2026-05-07 21:07 50.09811 14.02349 12116 ft 294 kts 79°
2026-05-07 21:07 50.10162 14.05462 11727 ft 292 kts 79°
2026-05-07 21:07 50.10515 14.08588 11349 ft 290 kts 79°
2026-05-07 21:07 50.10857 14.11635 10979 ft 288 kts 79°
2026-05-07 21:08 50.11198 14.14684 10605 ft 286 kts 79°
2026-05-07 21:08 50.11542 14.17759 10212 ft 285 kts 80°
2026-05-07 21:08 50.11877 14.20762 9850 ft 284 kts 80°
2026-05-07 21:08 50.12213 14.23782 9480 ft 283 kts 80°
2026-05-07 21:09 50.12549 14.26818 9122 ft 282 kts 80°
2026-05-07 21:09 50.12882 14.29822 8741 ft 278 kts 80°
2026-05-07 21:09 50.13206 14.32762 8424 ft 269 kts 80°
2026-05-07 21:09 50.13515 14.35568 8113 ft 260 kts 80°
2026-05-07 21:10 50.13656 14.38307 7769 ft 254 kts 96°
2026-05-07 21:10 50.13126 14.40854 7417 ft 248 kts 120°
2026-05-07 21:10 50.12190 14.43105 7069 ft 244 kts 125°
2026-05-07 21:10 50.11240 14.45291 6719 ft 242 kts 124°
2026-05-07 21:11 50.10304 14.47445 6409 ft 238 kts 124°
2026-05-07 21:11 50.09392 14.49537 6179 ft 233 kts 124°
2026-05-07 21:11 50.07600 14.53641 5766 ft 223 kts 124°
2026-05-07 21:12 50.06746 14.55593 5658 ft 213 kts 124°
2026-05-07 21:12 50.05925 14.57471 5556 ft 204 kts 124°
2026-05-07 21:12 50.05151 14.59235 5457 ft 196 kts 124°
2026-05-07 21:12 50.04201 14.60686 5346 ft 188 kts 157°
2026-05-07 21:13 50.02942 14.60905 5223 ft 183 kts 198°
2026-05-07 21:13 50.01817 14.59934 5117 ft 189 kts 224°
2026-05-07 21:13 50.01118 14.58262 5014 ft 186 kts 246°
2026-05-07 21:13 50.00597 14.56430 4916 ft 186 kts 248°
2026-05-07 21:14 50.00060 14.54549 4709 ft 188 kts 248°
2026-05-07 21:14 49.99533 14.52729 4508 ft 186 kts 248°
2026-05-07 21:14 49.99001 14.50896 4316 ft 186 kts 248°
2026-05-07 21:14 49.98726 14.48967 4132 ft 184 kts 278°
2026-05-07 21:15 49.99291 14.47225 3922 ft 183 kts 317°
2026-05-07 21:15 50.00330 14.46101 3742 ft 181 kts 316°
2026-05-07 21:15 50.01103 14.44550 3562 ft 182 kts 305°
2026-05-07 21:15 50.01833 14.42954 3370 ft 180 kts 307°
2026-05-07 21:16 50.02599 14.41391 3173 ft 180 kts 308°
2026-05-07 21:16 50.03350 14.39861 2972 ft 177 kts 308°
2026-05-07 21:16 50.04104 14.38314 2770 ft 180 kts 308°
2026-05-07 21:16 50.04841 14.36802 2553 ft 167 kts 308°
2026-05-07 21:17 50.05514 14.35421 2362 ft 156 kts 308°
2026-05-07 21:17 50.06151 14.34114 2189 ft 147 kts 308°
2026-05-07 21:17 50.06763 14.32868 1994 ft 142 kts 309°
2026-05-07 21:17 50.07360 14.31653 1794 ft 139 kts 308°
2026-05-07 21:18 50.07932 14.30443 1647 ft 141 kts 308°
2026-05-07 21:18 50.08524 14.29218 1458 ft 139 kts 309°
2026-05-07 21:18 50.09103 14.28036 1270 ft 138 kts 309°
2026-05-07 21:18 50.09674 14.26887 1223 ft 125 kts 306°
2026-05-07 21:19 50.10102 14.25990 1203 ft 81 kts 307°
2026-05-07 21:19 50.10327 14.25523 1191 ft 33 kts 306°
2026-05-07 21:19 50.10396 14.25385 1188 ft 11 kts 320°
2026-05-07 21:19 50.10449 14.25424 1186 ft 11 kts 71°
2026-05-07 21:20 50.10466 14.25552 1185 ft 9 kts 77°
2026-05-07 21:20 50.10477 14.25630 1185 ft 9 kts 78°
2026-05-07 21:20 50.10495 14.25781 1184 ft 18 kts 80°
2026-05-07 21:20 50.10519 14.25986 1186 ft 19 kts 79°
2026-05-07 21:21 50.10535 14.26200 1186 ft 20 kts 100°
2026-05-07 21:21 50.10475 14.26363 1192 ft 8 kts 124°
2026-05-07 21:21 50.10458 14.26424 1195 ft 4 kts 80°
2026-05-07 21:21 50.10473 14.26460 1196 ft 3 kts 40°
2026-05-07 21:22 50.10477 14.26466 1196 ft 0 kts 39°